Regional Weather Roundup
Issued by NWS Glasgow, MT

Home | Current Version | Previous Version | Text Only | Print | Product List | Glossary On
Versions: 1 2 3 4 5 6 7 8 9 10 11 12 13 14 15 16 17 18 19 20 21 22 23 24 25 26 27 28 29 30 31 32 33 34 35 36 37 38 39 40 41 42 43 44 45 46 47 48 49 50
000
ASUS45 KGGW 250215
RWRGGW
HOURLY WEATHER ROUNDUP FOR NORTHEAST MONTANA
NATIONAL WEATHER SERVICE GLASGOW MONTANA
800 PM MDT FRI APR 24 2015

NOTE: "FAIR" INDICATES FEW OR NO CLOUDS BELOW 12,000 FEET WITH NO
SIGNIFICANT WEATHER AND/OR OBSTRUCTIONS TO VISISBILITY.

NORTHEAST MONTANA


CITY           SKY/WX    TMP DP  RH WIND       PRES   REMARKS
GLASGOW        MOCLDY    60  33  36 NW8       29.59R
PLENTYWOOD       N/A    N/A N/A N/A N9          N/A
WOLF POINT     MOCLDY    59  45  59 E5        29.58R
JORDAN           N/A     60  33  36 NE12      29.59R
WINNETT          N/A     59  32  36 NE12        N/A
SIDNEY         CLOUDY    63  37  39 CALM      29.60S
GLENDIVE       CLOUDY    61  39  44 NE7       29.61R
MALTA            N/A     59  37  44 SE5         N/A
SCOBEY           N/A     58  34  40 E8        29.62R
OPHEIM           N/A     55  32  41 W1        29.47S

FORT PECK REPORTS


CITY           SKY/WX    TMP DP  RH WIND       PRES   REMARKS
FORT PECK        N/A     62  35  36 NW12        N/A
THE PINES        N/A     61  30  31 N6          N/A

SOUTHEAST MONTANA


CITY           SKY/WX    TMP DP  RH WIND       PRES   REMARKS
BILLINGS       PTCLDY    64  36  35 SE8       29.53R
MILES CITY     CLOUDY    54  47  77 E7        29.59F
BAKER          CLOUDY    57  35  43 SE7       29.61R
LIVINGSTON     LGT RAIN  46  38  73 W20       29.63R

CENTRAL MONTANA


CITY           SKY/WX    TMP DP  RH WIND       PRES   REMARKS
HAVRE          CLOUDY    57  35  43 VRB3      29.63R
LEWISTOWN      LGT RAIN  45  42  89 W13       29.68R
GREAT FALLS    LGT RAIN  42  40  92 S12       29.68S
CUT BANK       CLOUDY    47  21  35 W21       29.67R
HELENA         CLOUDY    48  29  47 W9        29.69R
BUTTE          LGT RAIN  35  32  88 NW9       29.74R
BOZEMAN        LGT RAIN  43  39  86 W20       29.69R

WESTERN MONTANA


CITY           SKY/WX    TMP DP  RH WIND       PRES   REMARKS
MISSOULA       MOCLDY    47  23  38 NW12      29.77R
KALISPELL      NOT AVBL

NORTH DAKOTA


CITY           SKY/WX    TMP DP  RH WIND       PRES   REMARKS
WILLISTON      PTCLDY    61  33  35 E12       29.61S
DICKINSON      CLEAR     54  33  45 E8        29.62R
MINOT          PTCLDY    53  35  50 NE8       29.67R
BISMARCK       CLEAR     56  41  57 E8        29.64R

SOUTHERN SASKATCHEWAN


CITY           SKY/WX    TMP DP  RH WIND       PRES   REMARKS
REGINA         CLOUDY    52  32  46 E17G23    29.67R
ESTEVAN        MOCLDY    55  36  47 E10       29.67R
SWIFT CURRENT  CLEAR     50  34  53 E15       29.62R




USA.gov is the U.S. government's official web portal to all federal, state and local government web resources and services.